Year,Month,Day,Hour,Minute,Value (Times are PST for temperature in C)
2008,06,23,00,00,10.50
2008,06,23,00,01,10.50
2008,06,23,00,02,10.50
2008,06,23,00,03,10.40
2008,06,23,00,04,10.40
2008,06,23,00,05,10.40
2008,06,23,00,06,10.40
2008,06,23,00,07,10.30
2008,06,23,00,08,10.30
2008,06,23,00,09,10.30
2008,06,23,00,10,10.30
2008,06,23,00,11,10.30
2008,06,23,00,12,10.30
2008,06,23,00,13,10.30
2008,06,23,01,02,11.70
2008,06,23,01,03,11.60
2008,06,23,01,04,11.60
2008,06,23,01,05,11.60
2008,06,23,01,06,11.50
2008,06,23,01,07,11.50
2008,06,23,01,08,11.40
2008,06,23,01,09,11.40
2008,06,23,01,10,11.40
2008,06,23,01,11,11.40
2008,06,23,01,12,11.40
2008,06,23,01,13,11.40
2008,06,23,01,14,11.40
2008,06,23,01,15,11.40
2008,06,23,01,16,11.30
2008,06,23,01,17,11.30
2008,06,23,01,18,11.30
2008,06,23,01,19,11.30
2008,06,23,01,20,11.30
2008,06,23,01,21,11.30
2008,06,23,01,22,11.30
2008,06,23,01,23,11.30
2008,06,23,01,24,11.30
2008,06,23,01,25,11.30
2008,06,23,01,26,11.30
2008,06,23,01,27,11.30
2008,06,23,01,28,11.30
2008,06,23,01,29,11.30
2008,06,23,01,30,11.40
2008,06,23,01,31,11.40
2008,06,23,01,32,11.40
2008,06,23,01,33,11.40
2008,06,23,01,34,11.40
2008,06,23,01,35,11.40
2008,06,23,01,36,11.50
2008,06,23,01,37,11.50
2008,06,23,01,38,11.40
2008,06,23,01,39,11.40
2008,06,23,01,40,11.40
2008,06,23,01,41,11.30
2008,06,23,01,42,11.30
2008,06,23,01,43,11.30
2008,06,23,01,44,11.30
2008,06,23,01,45,11.30
2008,06,23,01,46,11.30
2008,06,23,01,47,11.40
2008,06,23,01,48,11.40
2008,06,23,01,49,11.40
2008,06,23,01,50,11.40
2008,06,23,01,51,11.40
2008,06,23,01,52,11.40
2008,06,23,01,53,11.40
2008,06,23,01,54,11.40
2008,06,23,01,55,11.30
2008,06,23,01,56,11.30
2008,06,23,01,57,11.30
2008,06,23,01,58,11.30
2008,06,23,01,59,11.30
2008,06,23,02,00,11.30
2008,06,23,02,01,11.30
2008,06,23,02,02,11.30
2008,06,23,02,03,11.30
2008,06,23,02,04,11.30
2008,06,23,02,05,11.30
2008,06,23,02,06,11.20
2008,06,23,02,07,11.20
2008,06,23,02,08,11.10
2008,06,23,02,09,11.00
2008,06,23,02,10,11.00
2008,06,23,02,11,10.90
2008,06,23,02,12,10.80
2008,06,23,02,13,10.80
2008,06,23,02,14,10.70
2008,06,23,02,15,10.70
2008,06,23,02,16,10.60
2008,06,23,02,17,10.60
2008,06,23,02,18,10.50
2008,06,23,02,19,10.50
2008,06,23,02,20,10.50
2008,06,23,02,21,10.40
2008,06,23,02,22,10.40
2008,06,23,02,23,10.40
2008,06,23,02,24,10.40
2008,06,23,02,25,10.40
2008,06,23,02,26,10.40
2008,06,23,02,27,10.30
2008,06,23,02,28,10.30
2008,06,23,02,29,10.30
2008,06,23,02,30,10.20
2008,06,23,02,31,10.20
2008,06,23,02,32,10.20
2008,06,23,02,33,10.20
2008,06,23,02,34,10.30
2008,06,23,02,35,10.30
2008,06,23,02,36,10.30
2008,06,23,02,37,10.40
2008,06,23,02,38,10.40
2008,06,23,02,39,10.50
2008,06,23,02,40,10.50
2008,06,23,02,41,10.50
2008,06,23,02,42,10.60
2008,06,23,02,43,10.60
2008,06,23,02,44,10.60
2008,06,23,02,45,10.60
2008,06,23,02,46,10.60
2008,06,23,02,47,10.70
2008,06,23,02,48,10.70
2008,06,23,02,49,10.70
2008,06,23,02,50,10.70
2008,06,23,02,51,10.70
2008,06,23,02,52,10.70
2008,06,23,02,53,10.70
2008,06,23,02,54,10.70
2008,06,23,02,55,10.70
2008,06,23,02,56,10.70
2008,06,23,02,57,10.70
2008,06,23,02,58,10.60
2008,06,23,02,59,10.60
2008,06,23,03,00,10.60
2008,06,23,03,01,10.60
2008,06,23,03,02,10.60
2008,06,23,03,03,10.60
2008,06,23,03,04,10.60
2008,06,23,03,05,10.50
2008,06,23,03,06,10.50
2008,06,23,03,07,10.40
2008,06,23,03,08,10.40
2008,06,23,03,09,10.40
2008,06,23,03,10,10.30
2008,06,23,03,11,10.30
2008,06,23,03,12,10.20
2008,06,23,03,13,10.20
2008,06,23,03,14,10.20
2008,06,23,03,15,10.10
2008,06,23,03,16,10.10
2008,06,23,03,17,10.00
2008,06,23,03,18,10.00
2008,06,23,03,19,10.00
2008,06,23,03,20,10.00
2008,06,23,03,21,10.00
2008,06,23,03,22,9.90
2008,06,23,03,23,9.90
2008,06,23,03,24,9.90
2008,06,23,03,25,9.90
2008,06,23,03,26,9.90
2008,06,23,03,27,9.90
2008,06,23,03,28,9.90
2008,06,23,03,29,9.90
2008,06,23,03,30,10.00
2008,06,23,03,31,10.00
2008,06,23,03,32,9.90
2008,06,23,03,33,9.90
2008,06,23,03,34,9.90
2008,06,23,03,35,9.90
2008,06,23,03,36,10.00
2008,06,23,03,37,10.10
2008,06,23,03,38,10.10
2008,06,23,03,39,10.10
2008,06,23,03,40,10.10
2008,06,23,03,41,10.10
2008,06,23,03,42,10.10
2008,06,23,03,43,10.10
2008,06,23,03,44,10.00
2008,06,23,03,45,10.00
2008,06,23,03,46,10.00
2008,06,23,03,47,10.00
2008,06,23,03,48,10.00
2008,06,23,03,49,9.90
2008,06,23,03,50,9.90
2008,06,23,03,51,9.90
2008,06,23,03,52,9.90
2008,06,23,03,53,9.80
2008,06,23,03,54,9.80
2008,06,23,03,55,9.70
2008,06,23,03,56,9.70
2008,06,23,03,57,9.60
2008,06,23,03,58,9.60
2008,06,23,03,59,9.60
2008,06,23,04,00,9.60
2008,06,23,04,01,9.60
2008,06,23,04,02,9.60
2008,06,23,04,03,9.70
2008,06,23,04,04,9.70
2008,06,23,04,05,9.70
2008,06,23,04,06,9.70
2008,06,23,04,07,9.70
2008,06,23,04,08,9.70
2008,06,23,04,09,9.70
2008,06,23,04,10,9.70
2008,06,23,04,11,9.70
2008,06,23,04,12,9.70
2008,06,23,04,13,9.70
2008,06,23,04,14,9.70
2008,06,23,04,15,9.70
2008,06,23,04,16,9.80
2008,06,23,04,17,9.80
2008,06,23,04,18,9.80
2008,06,23,04,19,9.80
2008,06,23,04,20,9.80
2008,06,23,04,21,9.80
2008,06,23,04,22,9.80
2008,06,23,04,23,9.80
2008,06,23,04,24,9.70
2008,06,23,04,25,9.70
2008,06,23,04,26,9.60
2008,06,23,04,27,9.60
2008,06,23,04,28,9.60
2008,06,23,04,29,9.60
2008,06,23,04,30,9.60
2008,06,23,04,31,9.60
2008,06,23,04,32,9.60
2008,06,23,04,33,9.60
2008,06,23,04,34,9.60
2008,06,23,04,35,9.60
2008,06,23,04,36,9.50
2008,06,23,04,37,9.40
2008,06,23,04,38,9.40
2008,06,23,04,39,9.30
2008,06,23,04,40,9.30
2008,06,23,04,41,9.30
2008,06,23,04,42,9.20
2008,06,23,04,43,9.20
2008,06,23,04,44,9.10
2008,06,23,04,45,9.10
2008,06,23,04,46,9.00
2008,06,23,04,47,9.00
2008,06,23,04,48,9.00
2008,06,23,04,49,9.00
2008,06,23,04,50,9.10
2008,06,23,04,51,9.10
2008,06,23,04,52,9.10
2008,06,23,04,53,9.20
2008,06,23,04,54,9.30
2008,06,23,04,55,9.30
2008,06,23,04,56,9.30
2008,06,23,04,57,9.40
2008,06,23,04,58,9.50
2008,06,23,04,59,9.50
2008,06,23,05,00,9.60
2008,06,23,05,01,9.60
2008,06,23,05,02,9.70
2008,06,23,05,03,9.70
2008,06,23,05,04,9.70
2008,06,23,05,05,9.70
2008,06,23,05,06,9.70
2008,06,23,05,07,9.80
2008,06,23,05,08,9.80
2008,06,23,05,09,9.80
2008,06,23,05,10,9.80
2008,06,23,05,11,9.80
2008,06,23,05,12,9.80
2008,06,23,05,13,9.90
2008,06,23,05,14,9.90
2008,06,23,05,15,9.80
2008,06,23,05,16,9.80
2008,06,23,05,17,9.80
2008,06,23,05,18,9.70
2008,06,23,05,19,9.70
2008,06,23,05,20,9.60
2008,06,23,05,21,9.60
2008,06,23,05,22,9.60
2008,06,23,05,23,9.50
2008,06,23,05,24,9.50
2008,06,23,05,25,9.40
2008,06,23,05,26,9.40
2008,06,23,05,27,9.40
2008,06,23,05,28,9.40
2008,06,23,05,29,9.30
2008,06,23,05,30,9.30
2008,06,23,05,31,9.30
2008,06,23,05,32,9.30
2008,06,23,05,33,9.30
2008,06,23,05,34,9.30
2008,06,23,05,35,9.30
2008,06,23,05,36,9.30
2008,06,23,05,37,9.30
2008,06,23,05,38,9.30
2008,06,23,05,39,9.30
2008,06,23,05,40,9.30
2008,06,23,05,41,9.30
2008,06,23,05,42,9.30
2008,06,23,05,43,9.30
2008,06,23,05,44,9.30
2008,06,23,05,45,9.30
2008,06,23,05,46,9.30
2008,06,23,05,47,9.30
2008,06,23,05,48,9.30
2008,06,23,05,49,9.30
2008,06,23,05,50,9.40
2008,06,23,05,51,9.40
2008,06,23,05,52,9.40
2008,06,23,05,53,9.40
2008,06,23,05,54,9.40
2008,06,23,05,55,9.50
2008,06,23,05,56,9.50
2008,06,23,05,57,9.60
2008,06,23,05,58,9.60
2008,06,23,05,59,9.60
2008,06,23,06,00,9.60
2008,06,23,06,01,9.70
2008,06,23,06,02,9.70
2008,06,23,06,03,9.70
2008,06,23,06,04,9.80
2008,06,23,06,05,9.80
2008,06,23,06,06,9.80
2008,06,23,06,07,9.90
2008,06,23,06,08,9.90
2008,06,23,06,09,9.90
2008,06,23,06,10,10.00
2008,06,23,06,11,10.00
2008,06,23,06,12,10.10
2008,06,23,06,13,10.10
2008,06,23,06,14,10.10
2008,06,23,06,15,10.20
2008,06,23,06,16,10.20
2008,06,23,06,17,10.20
2008,06,23,06,18,10.20
2008,06,23,06,19,10.30
2008,06,23,06,20,10.30
2008,06,23,06,21,10.30
2008,06,23,06,22,10.30
2008,06,23,06,23,10.30
2008,06,23,06,24,10.30
2008,06,23,06,25,10.30
2008,06,23,06,26,10.40
2008,06,23,06,27,10.40
2008,06,23,06,28,10.40
2008,06,23,06,29,10.50
2008,06,23,06,30,10.50
2008,06,23,06,31,10.50
2008,06,23,06,32,10.60
2008,06,23,06,33,10.60
2008,06,23,06,34,10.60
2008,06,23,06,35,10.60
2008,06,23,06,36,10.60
2008,06,23,06,37,10.60
2008,06,23,06,38,10.60
2008,06,23,06,39,10.60
2008,06,23,06,40,10.60
2008,06,23,06,41,10.60
2008,06,23,06,42,10.60
2008,06,23,06,43,10.60
2008,06,23,06,44,10.60
2008,06,23,06,45,10.60
2008,06,23,06,46,10.60
2008,06,23,06,47,10.60
2008,06,23,06,48,10.60
2008,06,23,06,49,10.60
2008,06,23,06,50,10.60
2008,06,23,06,51,10.70
2008,06,23,06,52,10.70
2008,06,23,06,53,10.70
2008,06,23,06,54,10.80
2008,06,23,06,55,10.80
2008,06,23,06,56,10.80
2008,06,23,06,57,10.80
2008,06,23,06,58,10.90
2008,06,23,06,59,10.90
2008,06,23,07,00,10.90
2008,06,23,07,01,10.90
2008,06,23,07,02,11.00
2008,06,23,07,03,11.10
2008,06,23,07,04,11.10
2008,06,23,07,05,11.10
2008,06,23,07,06,11.20
2008,06,23,07,07,11.20
2008,06,23,07,08,11.20
2008,06,23,07,09,11.30
2008,06,23,07,10,11.30
2008,06,23,07,11,11.30
2008,06,23,07,12,11.40
2008,06,23,07,13,11.40
2008,06,23,07,14,11.40
2008,06,23,07,15,11.40
2008,06,23,07,16,11.50
2008,06,23,07,17,11.60
2008,06,23,07,18,11.60
2008,06,23,07,19,11.60
2008,06,23,07,20,11.70
2008,06,23,07,21,11.80
2008,06,23,07,22,11.90
2008,06,23,07,23,12.00
2008,06,23,07,24,12.10
2008,06,23,07,25,12.20
2008,06,23,07,26,12.30
2008,06,23,07,27,12.30
2008,06,23,07,28,12.40
2008,06,23,07,29,12.50
2008,06,23,07,30,12.60
2008,06,23,07,31,12.70
2008,06,23,07,32,12.80
2008,06,23,07,33,12.90
2008,06,23,07,34,12.90
2008,06,23,07,35,13.00
2008,06,23,07,36,13.10
2008,06,23,07,37,13.10
2008,06,23,07,38,13.20
2008,06,23,07,39,13.20
2008,06,23,07,40,13.30
2008,06,23,07,41,13.30
2008,06,23,07,42,13.30
2008,06,23,07,43,13.40
2008,06,23,07,44,13.40
2008,06,23,07,45,13.50
2008,06,23,07,46,13.60
2008,06,23,07,47,13.60
2008,06,23,07,48,13.60
2008,06,23,07,49,13.70
2008,06,23,07,50,13.70
2008,06,23,07,51,13.80
2008,06,23,07,52,13.80
2008,06,23,07,53,13.80
2008,06,23,07,54,13.80
2008,06,23,07,55,13.80
2008,06,23,07,56,13.80
2008,06,23,07,57,13.80
2008,06,23,07,58,13.80
2008,06,23,07,59,13.80
2008,06,23,08,00,13.70
2008,06,23,08,01,13.70
2008,06,23,08,02,13.70
2008,06,23,08,03,13.70
2008,06,23,08,04,13.70
2008,06,23,08,05,13.70
2008,06,23,08,06,13.80
2008,06,23,08,07,13.80
2008,06,23,08,08,13.80
2008,06,23,08,09,13.80
2008,06,23,08,10,13.80
2008,06,23,08,11,13.80
2008,06,23,08,12,13.80
2008,06,23,08,13,13.80
2008,06,23,08,14,13.80
2008,06,23,08,15,13.80
2008,06,23,08,16,13.90
2008,06,23,08,17,13.90
2008,06,23,08,18,13.90
2008,06,23,08,19,14.00
2008,06,23,08,20,14.00
2008,06,23,08,21,14.00
2008,06,23,08,22,14.00
2008,06,23,08,23,13.90
2008,06,23,08,24,13.90
2008,06,23,08,25,13.90
2008,06,23,08,26,14.00
2008,06,23,08,27,14.00
2008,06,23,08,28,14.10
2008,06,23,08,29,14.10
2008,06,23,08,30,14.20
2008,06,23,08,31,14.20
2008,06,23,08,32,14.30
2008,06,23,08,33,14.40
2008,06,23,08,34,14.40
2008,06,23,08,35,14.40
2008,06,23,08,36,14.50
2008,06,23,08,37,14.40
2008,06,23,08,38,14.40
2008,06,23,08,39,14.40
2008,06,23,08,40,14.40
2008,06,23,08,41,14.40
2008,06,23,08,42,14.50
2008,06,23,08,43,14.50
2008,06,23,08,44,14.60
2008,06,23,08,45,14.60
2008,06,23,08,46,14.70
2008,06,23,08,47,14.70
2008,06,23,08,48,14.70
2008,06,23,08,49,14.70
2008,06,23,08,50,14.70
2008,06,23,08,51,14.70
2008,06,23,08,52,14.70
2008,06,23,08,53,14.70
2008,06,23,08,54,14.70
2008,06,23,08,55,14.70
2008,06,23,08,56,14.70
2008,06,23,08,57,14.70
2008,06,23,08,58,14.70
2008,06,23,08,59,14.80
2008,06,23,09,00,14.80
2008,06,23,09,01,15.00
2008,06,23,09,02,15.00
2008,06,23,09,03,15.00
2008,06,23,09,04,15.00
2008,06,23,09,05,15.10
2008,06,23,09,06,15.20
2008,06,23,09,07,15.10
2008,06,23,09,08,15.00
2008,06,23,09,09,15.00
2008,06,23,09,10,15.00
2008,06,23,09,11,15.00
2008,06,23,09,12,14.90
2008,06,23,09,13,14.80
2008,06,23,09,14,14.80
2008,06,23,09,15,14.70
2008,06,23,09,16,14.70
2008,06,23,09,17,14.70
2008,06,23,09,18,14.70
2008,06,23,09,19,14.70
2008,06,23,09,20,14.60
2008,06,23,09,21,14.70
2008,06,23,09,22,14.70
2008,06,23,09,23,14.80
2008,06,23,09,24,14.80
2008,06,23,09,25,14.90
2008,06,23,09,26,15.00
2008,06,23,09,27,15.00
2008,06,23,09,28,15.10
2008,06,23,09,29,15.20
2008,06,23,09,30,15.40
2008,06,23,09,31,15.50
2008,06,23,09,32,15.60
2008,06,23,09,33,15.70
2008,06,23,09,34,15.60
2008,06,23,09,35,15.60
2008,06,23,09,36,15.40
2008,06,23,09,37,15.30
2008,06,23,09,38,15.20
2008,06,23,09,39,15.20
2008,06,23,09,40,15.20
2008,06,23,09,41,15.20
2008,06,23,09,42,15.30
2008,06,23,09,43,15.40
2008,06,23,09,44,15.40
2008,06,23,09,45,15.40
2008,06,23,09,46,15.40
2008,06,23,09,47,15.40
2008,06,23,09,48,15.30
2008,06,23,09,49,15.30
2008,06,23,09,50,15.30
2008,06,23,09,51,15.30
2008,06,23,09,52,15.30
2008,06,23,09,53,15.20
2008,06,23,09,54,15.20
2008,06,23,09,55,15.10
2008,06,23,09,56,15.00
2008,06,23,09,57,15.00
2008,06,23,09,58,14.90
2008,06,23,09,59,14.80
2008,06,23,10,00,14.70
2008,06,23,10,01,14.60
2008,06,23,10,02,14.60
2008,06,23,10,03,14.70
2008,06,23,10,04,14.70
2008,06,23,10,05,14.80
2008,06,23,10,06,14.80
2008,06,23,10,07,14.70
2008,06,23,10,08,14.70
2008,06,23,10,09,14.60
2008,06,23,10,10,14.60
2008,06,23,10,11,14.60
2008,06,23,10,12,14.60
2008,06,23,10,13,14.70
2008,06,23,10,14,14.80
2008,06,23,10,15,14.90
2008,06,23,10,16,15.00
2008,06,23,10,17,15.00
2008,06,23,10,18,15.00
2008,06,23,10,19,15.00
2008,06,23,10,20,15.00
2008,06,23,10,21,15.00
2008,06,23,10,22,15.00
2008,06,23,10,23,15.00
2008,06,23,10,24,15.00
2008,06,23,10,25,15.00
2008,06,23,10,26,14.90
2008,06,23,10,27,14.80
2008,06,23,10,28,14.70
2008,06,23,10,29,14.60
2008,06,23,10,30,14.50
2008,06,23,10,31,14.50
2008,06,23,10,32,14.50
2008,06,23,10,33,14.60
2008,06,23,10,34,14.60
2008,06,23,10,35,14.60
2008,06,23,10,36,14.60
2008,06,23,10,37,14.60
2008,06,23,10,38,14.50
2008,06,23,10,39,14.40
2008,06,23,10,40,14.30
2008,06,23,10,41,14.20
2008,06,23,10,42,14.20
2008,06,23,10,43,14.20
2008,06,23,10,44,14.10
2008,06,23,10,45,14.10
2008,06,23,10,46,14.10
2008,06,23,10,47,14.10
2008,06,23,10,48,14.10
2008,06,23,10,49,14.10
2008,06,23,10,50,14.10
2008,06,23,10,51,14.00
2008,06,23,10,52,14.10
2008,06,23,10,53,14.10
2008,06,23,10,54,14.10
2008,06,23,10,55,14.10
2008,06,23,10,56,14.10
2008,06,23,10,57,14.10
2008,06,23,10,58,14.10
2008,06,23,10,59,14.10
2008,06,23,11,00,14.20
2008,06,23,11,01,14.30
2008,06,23,11,02,14.30
2008,06,23,11,03,14.30
2008,06,23,11,04,14.30
2008,06,23,11,05,14.30
2008,06,23,11,06,14.30
2008,06,23,11,07,14.40
2008,06,23,11,08,14.50
2008,06,23,11,09,14.50
2008,06,23,11,10,14.40
2008,06,23,11,11,14.40
2008,06,23,11,12,14.40
2008,06,23,11,13,14.40
2008,06,23,11,14,14.40
2008,06,23,11,15,14.40
2008,06,23,11,16,14.50
2008,06,23,11,17,14.60
2008,06,23,11,18,14.80
2008,06,23,11,19,15.00
2008,06,23,11,20,14.90
2008,06,23,11,21,14.90
2008,06,23,11,22,14.80
2008,06,23,11,23,14.70
2008,06,23,11,24,14.70
2008,06,23,11,25,14.60
2008,06,23,11,26,14.60
2008,06,23,11,27,14.60
2008,06,23,11,28,14.70
2008,06,23,11,29,14.80
2008,06,23,11,30,14.90
2008,06,23,11,31,14.80
2008,06,23,11,32,14.80
2008,06,23,11,33,14.90
2008,06,23,11,34,15.00
2008,06,23,11,35,15.00
2008,06,23,11,36,15.00
2008,06,23,11,37,15.00
2008,06,23,11,38,15.00
2008,06,23,11,39,15.00
2008,06,23,11,40,15.00
2008,06,23,11,41,15.00
2008,06,23,11,42,15.00
2008,06,23,11,43,15.10
2008,06,23,11,44,15.10
2008,06,23,11,45,15.20
2008,06,23,11,46,15.30
2008,06,23,11,47,15.40
2008,06,23,11,48,15.30
2008,06,23,11,49,15.20
2008,06,23,11,50,15.10
2008,06,23,11,51,15.00
2008,06,23,11,52,15.00
2008,06,23,11,53,15.00
2008,06,23,11,54,15.00
2008,06,23,11,55,15.00
2008,06,23,11,56,15.00
2008,06,23,11,57,15.00
2008,06,23,11,58,15.00
2008,06,23,11,59,15.00
2008,06,23,12,00,15.00
2008,06,23,12,01,15.00
2008,06,23,12,02,15.00
2008,06,23,12,03,15.00
2008,06,23,12,04,15.20
2008,06,23,12,05,15.30
2008,06,23,12,06,15.20
2008,06,23,12,07,15.30
2008,06,23,12,08,15.50
2008,06,23,12,09,15.60
2008,06,23,12,10,15.60
2008,06,23,12,11,15.50
2008,06,23,12,12,15.50
2008,06,23,12,13,15.50
2008,06,23,12,14,15.50
2008,06,23,12,15,15.40
2008,06,23,12,16,15.30
2008,06,23,12,17,15.20
2008,06,23,12,18,15.10
2008,06,23,12,19,15.00
2008,06,23,12,20,15.00
2008,06,23,12,21,15.00
2008,06,23,12,22,15.00
2008,06,23,12,23,15.00
2008,06,23,12,24,15.00
2008,06,23,12,25,15.20
2008,06,23,12,26,15.20
2008,06,23,12,27,15.30
2008,06,23,12,28,15.20
2008,06,23,12,29,15.20
2008,06,23,12,30,15.10
2008,06,23,12,31,15.00
2008,06,23,12,32,15.00
2008,06,23,12,33,15.00
2008,06,23,12,34,15.00
2008,06,23,12,35,15.00
2008,06,23,12,36,15.00
2008,06,23,12,37,15.00
2008,06,23,12,38,15.10
2008,06,23,12,39,15.00
2008,06,23,12,40,15.10
2008,06,23,12,41,15.20
2008,06,23,12,42,15.20
2008,06,23,12,43,15.20
2008,06,23,12,44,15.20
2008,06,23,12,45,15.30
2008,06,23,12,46,15.20
2008,06,23,12,47,15.20
2008,06,23,12,48,15.20
2008,06,23,12,49,15.10
2008,06,23,12,50,15.10
2008,06,23,12,51,15.00
2008,06,23,12,52,15.00
2008,06,23,12,53,15.00
2008,06,23,12,54,15.10
2008,06,23,12,55,15.00
2008,06,23,12,56,15.00
2008,06,23,12,57,15.00
2008,06,23,12,58,15.00
2008,06,23,12,59,15.00
2008,06,23,13,00,15.00
2008,06,23,13,01,15.00
2008,06,23,13,02,15.10
2008,06,23,13,03,15.20
2008,06,23,13,04,15.30
2008,06,23,13,05,15.40
2008,06,23,13,06,15.50
2008,06,23,13,07,15.60
2008,06,23,13,08,15.60
2008,06,23,13,09,15.60
2008,06,23,13,10,15.60
2008,06,23,13,11,15.60
2008,06,23,13,12,15.60
2008,06,23,13,13,15.50
2008,06,23,13,14,15.40
2008,06,23,13,15,15.40
2008,06,23,13,16,15.30
2008,06,23,13,17,15.30
2008,06,23,13,18,15.20
2008,06,23,13,19,15.30
2008,06,23,13,20,15.30
2008,06,23,13,21,15.30
2008,06,23,13,22,15.20
2008,06,23,13,23,15.20
2008,06,23,13,24,15.20
2008,06,23,13,25,15.10
2008,06,23,13,26,15.10
2008,06,23,13,27,15.10
2008,06,23,13,28,15.20
2008,06,23,13,29,15.30
2008,06,23,13,30,15.50
2008,06,23,13,31,15.60
2008,06,23,13,32,15.70
2008,06,23,13,33,15.80
2008,06,23,13,34,15.70
2008,06,23,13,35,15.60
2008,06,23,13,36,15.50
2008,06,23,13,37,15.50
2008,06,23,13,38,15.40
2008,06,23,13,39,15.40
2008,06,23,13,40,15.40
2008,06,23,13,41,15.40
2008,06,23,13,42,15.40
2008,06,23,13,43,15.30
2008,06,23,13,44,15.30
2008,06,23,13,45,15.20
2008,06,23,13,46,15.20
2008,06,23,13,47,15.20
2008,06,23,13,48,15.20
2008,06,23,13,49,15.20
2008,06,23,13,50,15.10
2008,06,23,13,51,15.00
2008,06,23,13,52,15.00
2008,06,23,13,53,15.00
2008,06,23,13,54,15.00
2008,06,23,13,55,15.00
2008,06,23,13,56,15.00
2008,06,23,13,57,15.00
2008,06,23,13,58,15.00
2008,06,23,13,59,15.00
2008,06,23,14,00,15.00
2008,06,23,14,01,15.00
2008,06,23,14,02,15.00
2008,06,23,14,03,15.00
2008,06,23,14,04,15.00
2008,06,23,14,05,15.00
2008,06,23,14,06,15.00
2008,06,23,14,07,15.00
2008,06,23,14,08,15.00
2008,06,23,14,09,15.00
2008,06,23,14,10,15.00
2008,06,23,14,11,15.00
2008,06,23,14,12,15.00
2008,06,23,14,13,15.00
2008,06,23,14,14,15.10
2008,06,23,14,15,15.20
2008,06,23,14,16,15.20
2008,06,23,14,17,15.10
2008,06,23,14,18,15.00
2008,06,23,14,19,15.00
2008,06,23,14,20,15.00
2008,06,23,14,21,15.00
2008,06,23,14,22,15.00
2008,06,23,14,23,15.00
2008,06,23,14,24,15.00
2008,06,23,14,25,15.00
2008,06,23,14,26,15.00
2008,06,23,14,27,15.00
2008,06,23,14,28,15.20
2008,06,23,14,29,15.20
2008,06,23,14,30,15.20
2008,06,23,14,31,15.30
2008,06,23,14,32,15.30
2008,06,23,14,33,15.40
2008,06,23,14,34,15.40
2008,06,23,14,35,15.40
2008,06,23,14,36,15.30
2008,06,23,14,37,15.30
2008,06,23,14,38,15.30
2008,06,23,14,39,15.30
2008,06,23,14,40,15.40
2008,06,23,14,41,15.40
2008,06,23,14,42,15.40
2008,06,23,14,43,15.50
2008,06,23,14,44,15.50
2008,06,23,14,45,15.60
2008,06,23,14,46,15.70
2008,06,23,14,47,15.80
2008,06,23,14,48,15.90
2008,06,23,14,49,16.00
2008,06,23,14,50,16.20
2008,06,23,14,51,16.20
2008,06,23,14,52,16.20
2008,06,23,14,53,16.30
2008,06,23,14,54,16.30
2008,06,23,14,55,16.40
2008,06,23,14,56,16.60
2008,06,23,14,57,16.70
2008,06,23,14,58,16.70
2008,06,23,14,59,16.70
2008,06,23,15,00,16.70
2008,06,23,15,01,16.70
2008,06,23,15,02,16.60
2008,06,23,15,03,16.50
2008,06,23,15,04,16.40
2008,06,23,15,05,16.20
2008,06,23,15,06,16.20
2008,06,23,15,07,16.20
2008,06,23,15,08,16.20
2008,06,23,15,09,16.20
2008,06,23,15,10,16.20
2008,06,23,15,11,16.20
2008,06,23,15,12,16.20
2008,06,23,15,13,16.20
2008,06,23,15,14,16.20
2008,06,23,15,15,16.10
2008,06,23,15,16,16.10
2008,06,23,15,17,16.10
2008,06,23,15,18,16.10
2008,06,23,15,19,16.00
2008,06,23,15,20,16.00
2008,06,23,15,21,16.10
2008,06,23,15,22,16.20
2008,06,23,15,23,16.20
2008,06,23,15,24,16.20
2008,06,23,15,25,16.20
2008,06,23,15,26,16.10
2008,06,23,15,27,16.00
2008,06,23,15,28,16.00
2008,06,23,15,29,16.00
2008,06,23,15,30,16.10
2008,06,23,15,31,16.10
2008,06,23,15,32,16.10
2008,06,23,15,33,16.10
2008,06,23,15,34,16.10
2008,06,23,15,35,16.10
2008,06,23,15,36,16.00
2008,06,23,15,37,16.00
2008,06,23,15,38,15.90
2008,06,23,15,39,15.90
2008,06,23,15,40,15.80
2008,06,23,15,41,15.70
2008,06,23,15,42,15.60
2008,06,23,15,43,15.70
2008,06,23,15,44,15.70
2008,06,23,15,45,15.70
2008,06,23,15,46,15.70
2008,06,23,15,47,15.60
2008,06,23,15,48,15.60
2008,06,23,15,49,15.60
2008,06,23,15,50,15.60
2008,06,23,15,51,15.70
2008,06,23,15,52,15.80
2008,06,23,15,53,15.80
2008,06,23,15,54,15.80
2008,06,23,15,55,15.80
2008,06,23,15,56,15.80
2008,06,23,15,57,15.80
2008,06,23,15,58,15.80
2008,06,23,15,59,15.70
2008,06,23,16,00,15.70
2008,06,23,16,01,15.70
2008,06,23,16,02,15.80
2008,06,23,16,03,15.80
2008,06,23,16,04,15.80
2008,06,23,16,05,15.90
2008,06,23,16,06,15.90
2008,06,23,16,07,15.90
2008,06,23,16,08,16.00
2008,06,23,16,09,16.00
2008,06,23,16,10,15.90
2008,06,23,16,11,15.90
2008,06,23,16,12,15.80
2008,06,23,16,13,15.80
2008,06,23,16,14,15.80
2008,06,23,16,15,15.80
2008,06,23,16,16,15.80
2008,06,23,16,17,15.90
2008,06,23,16,18,15.90
2008,06,23,16,19,15.90
2008,06,23,16,20,15.90
2008,06,23,16,21,16.00
2008,06,23,16,22,16.10
2008,06,23,16,23,16.20
2008,06,23,16,24,16.30
2008,06,23,16,25,16.30
2008,06,23,16,26,16.30
2008,06,23,16,27,16.40
2008,06,23,16,28,16.50
2008,06,23,16,29,16.50
2008,06,23,16,30,16.50
2008,06,23,16,31,16.40
2008,06,23,16,32,16.40
2008,06,23,16,33,16.40
2008,06,23,16,34,16.30
2008,06,23,16,35,16.30
2008,06,23,16,36,16.30
2008,06,23,16,37,16.30
2008,06,23,16,38,16.30
2008,06,23,16,39,16.30
2008,06,23,16,40,16.30
2008,06,23,16,41,16.30
2008,06,23,16,42,16.30
2008,06,23,16,43,16.30
2008,06,23,16,44,16.30
2008,06,23,16,45,16.30
2008,06,23,16,46,16.40
2008,06,23,16,47,16.40
2008,06,23,16,48,16.40
2008,06,23,16,49,16.50
2008,06,23,16,50,16.50
2008,06,23,16,51,16.60
2008,06,23,16,52,16.60
2008,06,23,16,53,16.60
2008,06,23,16,54,16.60
2008,06,23,16,55,16.50
2008,06,23,16,56,16.50
2008,06,23,16,57,16.40
2008,06,23,16,58,16.50
2008,06,23,16,59,16.60
2008,06,23,17,00,16.60
2008,06,23,17,01,16.70
2008,06,23,17,02,16.70
2008,06,23,17,03,16.80
2008,06,23,17,04,16.80
2008,06,23,17,05,16.80
2008,06,23,17,06,16.80
2008,06,23,17,07,16.80
2008,06,23,17,08,16.70
2008,06,23,17,09,16.70
2008,06,23,17,10,16.80
2008,06,23,17,11,16.90
2008,06,23,17,12,17.00
2008,06,23,17,13,17.00
2008,06,23,17,14,17.10
2008,06,23,17,15,17.10
2008,06,23,17,16,17.10
2008,06,23,17,17,17.10
2008,06,23,17,18,17.10
2008,06,23,17,19,17.00
2008,06,23,17,20,16.90
2008,06,23,17,21,16.90
2008,06,23,17,22,16.80
2008,06,23,17,23,16.80
2008,06,23,17,24,16.80
2008,06,23,17,25,16.80
2008,06,23,17,26,16.80
2008,06,23,17,27,16.90
2008,06,23,17,28,16.90
2008,06,23,17,29,16.90
2008,06,23,17,30,16.90
2008,06,23,17,31,16.90
2008,06,23,17,32,16.90
2008,06,23,17,33,16.90
2008,06,23,17,34,17.00
2008,06,23,17,35,17.00
2008,06,23,17,36,17.10
2008,06,23,17,37,17.20
2008,06,23,17,38,17.30
2008,06,23,17,39,17.40
2008,06,23,17,40,17.50
2008,06,23,17,41,17.50
2008,06,23,17,42,17.50
2008,06,23,17,43,17.50
2008,06,23,17,44,17.60
2008,06,23,17,45,17.60
2008,06,23,17,46,17.60
2008,06,23,17,47,17.80
2008,06,23,17,48,17.90
2008,06,23,17,49,18.00
2008,06,23,17,50,18.00
2008,06,23,17,51,18.10
2008,06,23,17,52,18.20
2008,06,23,17,53,18.30
2008,06,23,17,54,18.50
2008,06,23,17,55,18.70
2008,06,23,17,56,18.90
2008,06,23,17,57,19.10
2008,06,23,17,58,19.30
2008,06,23,17,59,19.40
2008,06,23,18,00,19.60
2008,06,23,18,01,19.70
2008,06,23,18,02,19.70
2008,06,23,18,03,19.80
2008,06,23,18,04,19.80
2008,06,23,18,05,19.90
2008,06,23,18,06,19.90
2008,06,23,18,07,19.90
2008,06,23,18,08,20.00
2008,06,23,18,09,20.00
2008,06,23,18,10,20.00
2008,06,23,18,11,20.10
2008,06,23,18,12,20.20
2008,06,23,18,13,20.20
2008,06,23,18,14,20.10